Time,TemperatureF,DewpointF,PressureIn,WindDirection,WindDirectionDegrees,WindSpeedMPH,WindSpeedGustMPH,Humidity,HourlyPrecipIn,Conditions,Clouds,dailyrainin,SoftwareType,DateUTC
2013-06-06 00:01:00,65.7,66.2,29.97,East,82,0.0,0.0,98,0.00,,,0.00,WUHU216WMR968SP,2013-06-06 04:01:00,
2013-06-06 00:02:00,65.7,66.2,29.97,East,82,0.0,0.0,98,0.00,,,0.00,WUHU216WMR968SP,2013-06-06 04:02:00,
2013-06-06 00:07:00,65.7,66.2,29.97,East,82,0.0,0.0,98,0.00,,,0.00,WUHU216WMR968SP,2013-06-06 04:07:00,
2013-06-06 00:12:00,65.7,66.2,29.97,East,82,0.0,0.0,98,0.00,,,0.00,WUHU216WMR968SP,2013-06-06 04:12:00,
2013-06-06 00:17:00,65.7,66.2,29.97,East,82,0.0,0.0,98,0.00,,,0.00,WUHU216WMR968SP,2013-06-06 04:17:00,
2013-06-06 00:22:00,65.5,66.2,29.97,East,82,0.0,0.0,98,0.00,,,0.00,WUHU216WMR968SP,2013-06-06 04:22:00,
2013-06-06 00:27:00,65.3,66.2,29.97,East,82,0.0,0.0,98,0.00,,,0.00,WUHU216WMR968SP,2013-06-06 04:27:00,
2013-06-06 00:32:00,65.3,66.2,29.97,East,82,0.0,0.0,98,0.00,,,0.00,WUHU216WMR968SP,2013-06-06 04:32:00,
2013-06-06 00:37:00,65.3,66.2,29.97,East,82,0.0,0.0,98,0.00,,,0.00,WUHU216WMR968SP,2013-06-06 04:37:00,
2013-06-06 00:42:00,65.3,66.2,29.97,East,82,0.0,0.0,98,0.00,,,0.00,WUHU216WMR968SP,2013-06-06 04:42:00,
2013-06-06 00:47:00,65.1,64.4,29.97,East,82,0.0,0.0,98,0.00,,,0.00,WUHU216WMR968SP,2013-06-06 04:47:00,
2013-06-06 00:52:00,65.3,66.2,29.97,East,82,0.0,0.0,98,0.00,,,0.00,WUHU216WMR968SP,2013-06-06 04:52:00,
2013-06-06 00:57:00,65.3,66.2,29.97,East,82,0.0,0.0,98,0.00,,,0.00,WUHU216WMR968SP,2013-06-06 04:57:00,
2013-06-06 01:02:00,65.3,66.2,29.97,East,82,0.0,0.0,98,0.00,,,0.00,WUHU216WMR968SP,2013-06-06 05:02:00,
2013-06-06 01:07:00,65.3,66.2,29.97,East,82,0.0,0.0,98,0.00,,,0.00,WUHU216WMR968SP,2013-06-06 05:07:00,
2013-06-06 01:12:00,65.1,64.4,29.97,East,82,0.0,0.0,98,0.00,,,0.00,WUHU216WMR968SP,2013-06-06 05:12:00,
2013-06-06 01:17:00,65.3,66.2,29.97,East,82,0.0,0.0,98,0.00,,,0.00,WUHU216WMR968SP,2013-06-06 05:17:00,
2013-06-06 01:22:00,65.1,64.4,29.94,East,82,0.0,0.0,98,0.00,,,0.00,WUHU216WMR968SP,2013-06-06 05:22:00,
2013-06-06 01:27:00,65.1,64.4,29.94,East,82,0.0,0.0,98,0.00,,,0.00,WUHU216WMR968SP,2013-06-06 05:27:00,
2013-06-06 01:32:00,65.1,64.4,29.94,East,82,0.0,0.0,98,0.00,,,0.00,WUHU216WMR968SP,2013-06-06 05:32:00,
2013-06-06 01:37:00,64.9,64.4,29.94,East,82,0.0,0.0,98,0.00,,,0.00,WUHU216WMR968SP,2013-06-06 05:37:00,
2013-06-06 01:42:00,64.9,64.4,29.94,East,83,0.0,0.0,98,0.00,,,0.00,WUHU216WMR968SP,2013-06-06 05:42:00,
2013-06-06 01:47:00,64.9,64.4,29.94,East,88,0.0,0.0,98,0.00,,,0.00,WUHU216WMR968SP,2013-06-06 05:47:00,
2013-06-06 01:52:00,64.9,64.4,29.94,East,88,0.0,0.0,98,0.00,,,0.00,WUHU216WMR968SP,2013-06-06 05:52:00,
2013-06-06 01:57:00,64.9,64.4,29.94,East,88,0.0,0.0,98,0.00,,,0.00,WUHU216WMR968SP,2013-06-06 05:57:00,
2013-06-06 02:02:00,64.9,64.4,29.94,East,88,0.0,0.0,98,0.00,,,0.00,WUHU216WMR968SP,2013-06-06 06:02:00,
2013-06-06 02:07:00,64.8,64.4,29.94,East,88,0.0,0.0,98,0.00,,,0.00,WUHU216WMR968SP,2013-06-06 06:07:00,
2013-06-06 02:12:00,64.8,64.4,29.94,East,88,0.0,0.0,98,0.00,,,0.00,WUHU216WMR968SP,2013-06-06 06:12:00,
2013-06-06 02:17:00,64.8,64.4,29.94,East,88,0.0,0.0,98,0.00,,,0.00,WUHU216WMR968SP,2013-06-06 06:17:00,
2013-06-06 02:22:00,64.8,64.4,29.94,East,88,0.0,0.0,98,0.00,,,0.00,WUHU216WMR968SP,2013-06-06 06:22:00,
2013-06-06 02:27:00,64.8,64.4,29.94,East,92,0.0,0.0,98,0.00,,,0.00,WUHU216WMR968SP,2013-06-06 06:27:00,
2013-06-06 02:32:00,64.8,64.4,29.94,East,93,0.0,0.0,98,0.00,,,0.00,WUHU216WMR968SP,2013-06-06 06:32:00,
2013-06-06 02:37:00,64.6,64.4,29.94,East,93,0.0,0.0,98,0.00,,,0.00,WUHU216WMR968SP,2013-06-06 06:37:00,
2013-06-06 02:42:00,64.6,64.4,29.94,East,93,0.0,0.0,98,0.00,,,0.00,WUHU216WMR968SP,2013-06-06 06:42:00,
2013-06-06 02:47:00,64.4,64.4,29.94,East,93,0.0,0.0,98,0.00,,,0.00,WUHU216WMR968SP,2013-06-06 06:47:00,
2013-06-06 02:52:00,64.4,64.4,29.91,East,93,0.0,0.0,98,0.00,,,0.00,WUHU216WMR968SP,2013-06-06 06:52:00,
2013-06-06 02:57:00,64.2,64.4,29.91,East,93,0.0,0.0,98,0.00,,,0.00,WUHU216WMR968SP,2013-06-06 06:57:00,
2013-06-06 03:02:00,64.2,64.4,29.91,East,93,0.0,0.0,98,0.00,,,0.00,WUHU216WMR968SP,2013-06-06 07:02:00,
2013-06-06 03:07:00,64.2,64.4,29.91,East,93,0.0,0.0,98,0.00,,,0.00,WUHU216WMR968SP,2013-06-06 07:07:00,
2013-06-06 03:12:00,64.2,64.4,29.91,East,93,0.0,0.0,98,0.00,,,0.00,WUHU216WMR968SP,2013-06-06 07:12:00,
2013-06-06 03:17:00,64.0,64.4,29.91,East,92,0.0,0.0,98,0.00,,,0.00,WUHU216WMR968SP,2013-06-06 07:17:00,
2013-06-06 03:22:00,64.0,64.4,29.91,East,92,0.0,0.0,98,0.00,,,0.00,WUHU216WMR968SP,2013-06-06 07:22:00,
2013-06-06 03:27:00,64.0,64.4,29.91,East,92,0.0,0.0,98,0.00,,,0.00,WUHU216WMR968SP,2013-06-06 07:27:00,
2013-06-06 03:32:00,64.0,64.4,29.91,East,92,0.0,0.0,98,0.00,,,0.00,WUHU216WMR968SP,2013-06-06 07:32:00,
2013-06-06 03:37:00,63.9,64.4,29.91,East,92,0.0,0.0,98,0.00,,,0.00,WUHU216WMR968SP,2013-06-06 07:37:00,
2013-06-06 03:42:00,63.9,64.4,29.91,East,92,0.0,0.0,98,0.00,,,0.00,WUHU216WMR968SP,2013-06-06 07:42:00,
2013-06-06 03:47:00,63.9,64.4,29.91,East,92,0.0,0.0,98,0.00,,,0.00,WUHU216WMR968SP,2013-06-06 07:47:00,
2013-06-06 03:52:00,63.9,64.4,29.91,East,92,0.0,0.0,98,0.00,,,0.00,WUHU216WMR968SP,2013-06-06 07:52:00,
2013-06-06 03:57:00,63.7,64.4,29.91,East,92,0.0,0.0,98,0.00,,,0.00,WUHU216WMR968SP,2013-06-06 07:57:00,
2013-06-06 04:02:00,63.9,64.4,29.91,East,89,0.0,0.0,98,0.00,,,0.00,WUHU216WMR968SP,2013-06-06 08:02:00,
2013-06-06 04:07:00,64.0,64.4,29.91,East,89,0.0,0.0,98,0.00,,,0.00,WUHU216WMR968SP,2013-06-06 08:07:00,
2013-06-06 04:12:00,63.9,64.4,29.91,East,89,0.0,0.0,98,0.00,,,0.00,WUHU216WMR968SP,2013-06-06 08:12:00,
2013-06-06 04:17:00,64.0,64.4,29.91,East,89,0.0,0.0,98,0.00,,,0.00,WUHU216WMR968SP,2013-06-06 08:17:00,
2013-06-06 04:22:00,63.9,64.4,29.91,East,89,0.0,0.0,98,0.00,,,0.00,WUHU216WMR968SP,2013-06-06 08:22:00,
2013-06-06 04:27:00,63.9,64.4,29.91,East,89,0.0,0.0,98,0.00,,,0.00,WUHU216WMR968SP,2013-06-06 08:27:00,
2013-06-06 04:32:00,63.9,64.4,29.91,East,89,0.0,0.0,98,0.00,,,0.00,WUHU216WMR968SP,2013-06-06 08:32:00,
2013-06-06 04:37:00,63.7,64.4,29.91,East,89,0.0,0.0,98,0.00,,,0.00,WUHU216WMR968SP,2013-06-06 08:37:00,
2013-06-06 04:42:00,63.7,64.4,29.91,East,89,0.0,0.0,98,0.00,,,0.00,WUHU216WMR968SP,2013-06-06 08:42:00,
2013-06-06 04:47:00,63.7,64.4,29.91,East,90,0.0,0.0,98,0.00,,,0.00,WUHU216WMR968SP,2013-06-06 08:47:00,
2013-06-06 04:52:00,63.7,64.4,29.91,East,89,0.0,0.0,98,0.00,,,0.00,WUHU216WMR968SP,2013-06-06 08:52:00,
2013-06-06 04:57:00,63.9,64.4,29.91,East,89,0.0,0.0,98,0.00,,,0.00,WUHU216WMR968SP,2013-06-06 08:57:00,
2013-06-06 05:02:00,63.9,64.4,29.91,East,89,0.0,0.0,98,0.00,,,0.00,WUHU216WMR968SP,2013-06-06 09:02:00,
2013-06-06 05:07:00,63.9,64.4,29.91,East,89,0.0,0.0,98,0.00,,,0.00,WUHU216WMR968SP,2013-06-06 09:07:00,
2013-06-06 05:12:00,63.9,64.4,29.91,East,89,0.0,0.0,98,0.00,,,0.00,WUHU216WMR968SP,2013-06-06 09:12:00,
2013-06-06 05:17:00,64.0,64.4,29.91,East,89,0.0,0.0,98,0.00,,,0.00,WUHU216WMR968SP,2013-06-06 09:17:00,
2013-06-06 05:22:00,64.0,64.4,29.88,East,89,0.0,0.0,98,0.00,,,0.00,WUHU216WMR968SP,2013-06-06 09:22:00,
2013-06-06 05:27:00,64.2,64.4,29.88,East,89,0.0,0.0,98,0.00,,,0.00,WUHU216WMR968SP,2013-06-06 09:27:00,
2013-06-06 05:32:00,64.2,64.4,29.88,East,89,0.0,0.0,98,0.00,,,0.00,WUHU216WMR968SP,2013-06-06 09:32:00,
2013-06-06 05:37:00,64.2,64.4,29.91,East,89,0.0,0.0,98,0.00,,,0.00,WUHU216WMR968SP,2013-06-06 09:37:00,
2013-06-06 05:42:00,64.4,64.4,29.91,East,89,0.0,0.0,98,0.00,,,0.00,WUHU216WMR968SP,2013-06-06 09:42:00,
2013-06-06 05:47:00,64.4,64.4,29.91,East,89,0.0,0.0,98,0.00,,,0.00,WUHU216WMR968SP,2013-06-06 09:47:00,
2013-06-06 05:52:00,64.4,64.4,29.91,East,89,0.0,0.0,98,0.00,,,0.00,WUHU216WMR968SP,2013-06-06 09:52:00,
2013-06-06 05:57:00,64.4,64.4,29.91,East,89,0.0,0.0,98,0.00,,,0.00,WUHU216WMR968SP,2013-06-06 09:57:00,
2013-06-06 06:02:00,64.4,64.4,29.91,East,89,0.0,0.0,98,0.00,,,0.00,WUHU216WMR968SP,2013-06-06 10:02:00,
2013-06-06 06:07:00,64.4,64.4,29.91,East,89,0.0,0.0,98,0.00,,,0.00,WUHU216WMR968SP,2013-06-06 10:07:00,
2013-06-06 06:12:00,64.2,64.4,29.91,East,89,0.0,0.0,98,0.00,,,0.00,WUHU216WMR968SP,2013-06-06 10:12:00,
2013-06-06 06:17:00,64.4,64.4,29.91,East,89,0.0,0.0,98,0.00,,,0.00,WUHU216WMR968SP,2013-06-06 10:17:00,
2013-06-06 06:22:00,64.2,64.4,29.91,East,89,0.0,0.0,98,0.00,,,0.00,WUHU216WMR968SP,2013-06-06 10:22:00,
2013-06-06 06:27:00,64.2,64.4,29.91,East,89,0.0,0.0,98,0.00,,,0.00,WUHU216WMR968SP,2013-06-06 10:27:00,
2013-06-06 06:32:00,64.2,64.4,29.91,East,89,0.0,0.0,98,0.00,,,0.00,WUHU216WMR968SP,2013-06-06 10:32:00,
2013-06-06 06:37:00,64.4,64.4,29.91,East,89,0.0,0.0,98,0.00,,,0.00,WUHU216WMR968SP,2013-06-06 10:37:00,
2013-06-06 06:42:00,64.4,64.4,29.91,East,89,0.0,0.0,98,0.00,,,0.00,WUHU216WMR968SP,2013-06-06 10:42:00,
2013-06-06 06:47:00,64.2,64.4,29.91,East,83,0.0,0.0,98,0.00,,,0.00,WUHU216WMR968SP,2013-06-06 10:47:00,
2013-06-06 06:52:00,64.2,64.4,29.91,East,83,0.0,0.0,98,0.00,,,0.00,WUHU216WMR968SP,2013-06-06 10:52:00,
2013-06-06 06:57:00,64.2,64.4,29.91,East,83,0.0,0.0,98,0.00,,,0.00,WUHU216WMR968SP,2013-06-06 10:57:00,
2013-06-06 07:02:00,64.4,64.4,29.91,East,89,0.0,0.0,98,0.00,,,0.00,WUHU216WMR968SP,2013-06-06 11:02:00,
2013-06-06 07:07:00,64.2,64.4,29.91,East,89,0.0,0.0,98,0.00,,,0.00,WUHU216WMR968SP,2013-06-06 11:07:00,
2013-06-06 07:12:00,64.2,64.4,29.91,East,89,0.0,0.0,98,0.00,,,0.00,WUHU216WMR968SP,2013-06-06 11:12:00,
2013-06-06 07:17:00,64.4,64.4,29.91,East,89,0.0,0.0,98,0.00,,,0.00,WUHU216WMR968SP,2013-06-06 11:17:00,
2013-06-06 07:22:00,64.4,64.4,29.91,East,89,0.0,0.0,98,0.00,,,0.00,WUHU216WMR968SP,2013-06-06 11:22:00,
2013-06-06 07:27:00,64.4,64.4,29.91,East,89,0.0,0.0,98,0.00,,,0.00,WUHU216WMR968SP,2013-06-06 11:27:00,
2013-06-06 07:32:00,64.6,64.4,29.91,East,89,0.0,0.0,98,0.00,,,0.00,WUHU216WMR968SP,2013-06-06 11:32:00,
2013-06-06 07:37:00,64.8,64.4,29.91,East,89,0.0,0.0,98,0.00,,,0.00,WUHU216WMR968SP,2013-06-06 11:37:00,
2013-06-06 07:42:00,65.1,64.4,29.91,East,89,0.0,0.0,98,0.00,,,0.00,WUHU216WMR968SP,2013-06-06 11:42:00,
2013-06-06 07:47:00,65.1,64.4,29.91,East,89,0.0,0.0,98,0.00,,,0.00,WUHU216WMR968SP,2013-06-06 11:47:00,
2013-06-06 07:52:00,65.3,66.2,29.91,East,89,0.0,0.0,98,0.00,,,0.00,WUHU216WMR968SP,2013-06-06 11:52:00,
2013-06-06 07:57:00,65.5,66.2,29.91,East,89,0.0,0.0,98,0.00,,,0.00,WUHU216WMR968SP,2013-06-06 11:57:00,
2013-06-06 08:02:00,65.7,66.2,29.91,East,89,0.0,0.0,98,0.00,,,0.00,WUHU216WMR968SP,2013-06-06 12:02:00,
2013-06-06 08:07:00,65.8,66.2,29.91,East,89,0.0,0.0,98,0.00,,,0.00,WUHU216WMR968SP,2013-06-06 12:07:00,
2013-06-06 08:12:00,65.8,66.2,29.91,East,89,0.0,0.0,98,0.00,,,0.00,WUHU216WMR968SP,2013-06-06 12:12:00,
2013-06-06 08:17:00,66.0,66.2,29.91,East,89,0.0,0.0,98,0.00,,,0.00,WUHU216WMR968SP,2013-06-06 12:17:00,
2013-06-06 08:22:00,66.4,66.2,29.91,East,89,0.0,0.0,98,0.00,,,0.00,WUHU216WMR968SP,2013-06-06 12:22:00,
2013-06-06 08:27:00,67.3,68.0,29.91,East,89,0.0,0.0,98,0.00,,,0.00,WUHU216WMR968SP,2013-06-06 12:27:00,
2013-06-06 08:32:00,68.0,68.0,29.91,East,88,0.0,0.0,98,0.00,,,0.00,WUHU216WMR968SP,2013-06-06 12:32:00,
2013-06-06 08:37:00,68.4,68.0,29.91,East,88,0.0,0.0,98,0.00,,,0.00,WUHU216WMR968SP,2013-06-06 12:37:00,
2013-06-06 08:42:00,68.7,68.0,29.91,East,88,0.0,0.0,98,0.00,,,0.00,WUHU216WMR968SP,2013-06-06 12:42:00,
2013-06-06 08:47:00,68.9,69.8,29.91,East,88,0.0,0.0,98,0.00,,,0.00,WUHU216WMR968SP,2013-06-06 12:47:00,
2013-06-06 08:52:00,69.4,69.8,29.91,East,88,0.0,0.0,98,0.00,,,0.00,WUHU216WMR968SP,2013-06-06 12:52:00,
2013-06-06 08:57:00,70.3,69.8,29.91,East,88,0.0,0.0,98,0.00,,,0.00,WUHU216WMR968SP,2013-06-06 12:57:00,
2013-06-06 09:03:00,70.7,71.6,29.91,East,88,0.0,0.0,98,0.00,,,0.00,WUHU216WMR968SP,2013-06-06 13:03:00,
2013-06-06 09:08:00,70.7,71.6,29.91,East,88,0.0,0.0,98,0.00,,,0.00,WUHU216WMR968SP,2013-06-06 13:08:00,
2013-06-06 09:13:00,70.7,71.6,29.91,East,88,0.0,0.0,98,0.00,,,0.00,WUHU216WMR968SP,2013-06-06 13:13:00,
2013-06-06 09:18:00,71.1,71.6,29.91,East,88,0.0,0.0,98,0.00,,,0.00,WUHU216WMR968SP,2013-06-06 13:18:00,
2013-06-06 09:23:00,71.2,71.6,29.91,East,88,0.0,0.0,98,0.00,,,0.00,WUHU216WMR968SP,2013-06-06 13:23:00,
2013-06-06 09:28:00,71.2,71.6,29.91,East,88,0.0,0.0,98,0.00,,,0.00,WUHU216WMR968SP,2013-06-06 13:28:00,
2013-06-06 09:33:00,71.4,71.6,29.91,East,88,0.0,0.0,98,0.00,,,0.00,WUHU216WMR968SP,2013-06-06 13:33:00,
2013-06-06 09:38:00,72.0,71.6,29.91,East,79,0.0,0.0,98,0.00,,,0.00,WUHU216WMR968SP,2013-06-06 13:38:00,
2013-06-06 09:43:00,72.7,73.4,29.91,ENE,65,0.0,0.0,98,0.00,,,0.00,WUHU216WMR968SP,2013-06-06 13:43:00,
2013-06-06 09:48:00,73.2,73.4,29.91,ENE,64,0.0,0.0,97,0.00,,,0.00,WUHU216WMR968SP,2013-06-06 13:48:00,
2013-06-06 09:53:00,72.9,71.6,29.91,WSW,250,0.0,0.0,96,0.00,,,0.00,WUHU216WMR968SP,2013-06-06 13:53:00,
2013-06-06 09:58:00,72.5,71.6,29.91,WSW,248,0.0,0.0,96,0.00,,,0.00,WUHU216WMR968SP,2013-06-06 13:58:00,
2013-06-06 10:03:00,72.7,71.6,29.91,WSW,248,0.0,0.0,95,0.00,,,0.00,WUHU216WMR968SP,2013-06-06 14:03:00,
2013-06-06 10:08:00,73.4,71.6,29.91,NNE,22,0.0,0.0,95,0.00,,,0.00,WUHU216WMR968SP,2013-06-06 14:08:00,
2013-06-06 10:13:00,74.3,73.4,29.91,South,186,0.0,0.0,94,0.00,,,0.00,WUHU216WMR968SP,2013-06-06 14:13:00,
2013-06-06 10:18:00,74.1,71.6,29.91,South,190,0.0,0.0,92,0.00,,,0.00,WUHU216WMR968SP,2013-06-06 14:18:00,
2013-06-06 10:23:00,73.8,69.8,29.91,South,190,0.0,0.0,91,0.00,,,0.00,WUHU216WMR968SP,2013-06-06 14:23:00,
2013-06-06 10:28:00,73.6,69.8,29.91,WSW,248,0.0,0.0,91,0.00,,,0.00,WUHU216WMR968SP,2013-06-06 14:28:00,
2013-06-06 10:33:00,73.2,71.6,29.91,SSW,202,0.0,0.0,92,0.00,,,0.00,WUHU216WMR968SP,2013-06-06 14:33:00,
2013-06-06 10:38:00,72.9,71.6,29.91,SSW,202,0.0,0.0,92,0.00,,,0.00,WUHU216WMR968SP,2013-06-06 14:38:00,
2013-06-06 10:43:00,72.5,71.6,29.91,SSE,157,0.0,0.0,92,0.00,,,0.00,WUHU216WMR968SP,2013-06-06 14:43:00,
2013-06-06 10:48:00,72.3,69.8,29.91,WSW,237,0.0,0.0,92,0.00,,,0.00,WUHU216WMR968SP,2013-06-06 14:48:00,
2013-06-06 10:53:00,72.1,69.8,29.91,SSW,211,0.0,0.0,92,0.00,,,0.00,WUHU216WMR968SP,2013-06-06 14:53:00,
2013-06-06 10:58:00,72.1,69.8,29.91,SSW,211,0.0,0.0,93,0.00,,,0.00,WUHU216WMR968SP,2013-06-06 14:58:00,
2013-06-06 11:03:00,72.5,71.6,29.91,SSW,211,0.0,0.0,93,0.00,,,0.00,WUHU216WMR968SP,2013-06-06 15:03:00,
2013-06-06 11:08:00,72.9,71.6,29.91,SSW,211,0.0,0.0,93,0.00,,,0.00,WUHU216WMR968SP,2013-06-06 15:08:00,
2013-06-06 11:13:00,73.8,71.6,29.91,SSW,211,0.0,0.0,93,0.00,,,0.00,WUHU216WMR968SP,2013-06-06 15:13:00,
2013-06-06 11:18:00,74.5,73.4,29.91,SSW,211,0.0,0.0,92,0.00,,,0.00,WUHU216WMR968SP,2013-06-06 15:18:00,
2013-06-06 11:23:00,74.7,71.6,29.91,NW,307,0.0,0.0,91,0.00,,,0.00,WUHU216WMR968SP,2013-06-06 15:23:00,
2013-06-06 11:28:00,74.5,71.6,29.91,NW,307,0.0,0.0,91,0.00,,,0.00,WUHU216WMR968SP,2013-06-06 15:28:00,
2013-06-06 11:33:00,73.9,69.8,29.91,SW,215,0.0,0.0,90,0.00,,,0.00,WUHU216WMR968SP,2013-06-06 15:33:00,
2013-06-06 11:38:00,74.1,69.8,29.91,SW,216,0.0,0.0,90,0.00,,,0.00,WUHU216WMR968SP,2013-06-06 15:38:00,
2013-06-06 11:43:00,74.7,71.6,29.91,SW,226,0.0,0.0,90,0.00,,,0.00,WUHU216WMR968SP,2013-06-06 15:43:00,
2013-06-06 11:48:00,75.4,71.6,29.91,NNE,29,0.0,0.0,89,0.00,,,0.00,WUHU216WMR968SP,2013-06-06 15:48:00,
2013-06-06 11:53:00,76.5,73.4,29.91,NNE,30,0.0,0.0,89,0.00,,,0.00,WUHU216WMR968SP,2013-06-06 15:53:00,
2013-06-06 11:58:00,77.7,71.6,29.91,SE,137,0.0,0.0,86,0.00,,,0.00,WUHU216WMR968SP,2013-06-06 15:58:00,
2013-06-06 12:03:00,78.6,73.4,29.91,North,353,0.0,0.0,83,0.00,,,0.00,WUHU216WMR968SP,2013-06-06 16:03:00,
2013-06-06 12:08:00,79.3,73.4,29.91,West,270,0.0,0.0,81,0.00,,,0.00,WUHU216WMR968SP,2013-06-06 16:08:00,
2013-06-06 12:13:00,79.9,73.4,29.91,ESE,112,0.0,0.0,78,0.00,,,0.00,WUHU216WMR968SP,2013-06-06 16:13:00,
2013-06-06 12:18:00,79.7,73.4,29.91,SSE,166,0.0,0.0,77,0.00,,,0.00,WUHU216WMR968SP,2013-06-06 16:18:00,
2013-06-06 12:23:00,79.9,73.4,29.88,West,263,0.0,0.0,78,0.00,,,0.00,WUHU216WMR968SP,2013-06-06 16:23:00,
2013-06-06 12:28:00,80.4,71.6,29.88,ENE,66,0.0,0.0,76,0.00,,,0.00,WUHU216WMR968SP,2013-06-06 16:28:00,
2013-06-06 12:33:00,80.6,71.6,29.88,SSW,213,0.0,0.0,74,0.00,,,0.00,WUHU216WMR968SP,2013-06-06 16:33:00,
2013-06-06 12:38:00,80.6,71.6,29.88,East,91,0.0,0.0,73,0.00,,,0.00,WUHU216WMR968SP,2013-06-06 16:38:00,
2013-06-06 12:43:00,80.6,69.8,29.88,SSW,204,0.0,0.0,71,0.00,,,0.00,WUHU216WMR968SP,2013-06-06 16:43:00,
2013-06-06 12:48:00,80.1,71.6,29.88,SW,214,0.0,0.0,73,0.00,,,0.00,WUHU216WMR968SP,2013-06-06 16:48:00,
2013-06-06 12:53:00,79.9,71.6,29.88,ENE,58,0.0,0.0,73,0.04,,,0.04,WUHU216WMR968SP,2013-06-06 16:53:00,
2013-06-06 12:58:00,80.1,71.6,29.88,SW,222,0.0,0.0,73,0.04,,,0.04,WUHU216WMR968SP,2013-06-06 16:58:00,
2013-06-06 13:03:00,79.5,69.8,29.88,East,99,0.0,0.0,74,0.04,,,0.04,WUHU216WMR968SP,2013-06-06 17:03:00,
2013-06-06 13:08:00,79.0,69.8,29.88,SSE,166,0.0,0.0,74,0.04,,,0.04,WUHU216WMR968SP,2013-06-06 17:08:00,
2013-06-06 13:13:00,79.0,69.8,29.88,ENE,71,0.0,0.0,73,0.04,,,0.04,WUHU216WMR968SP,2013-06-06 17:13:00,
2013-06-06 13:18:00,79.5,69.8,29.88,ENE,58,0.0,0.0,75,0.04,,,0.04,WUHU216WMR968SP,2013-06-06 17:18:00,
2013-06-06 13:23:00,79.9,71.6,29.88,ENE,58,0.0,0.0,76,0.04,,,0.04,WUHU216WMR968SP,2013-06-06 17:23:00,
2013-06-06 13:28:00,79.5,69.8,29.88,NNE,23,0.0,0.0,75,0.04,,,0.04,WUHU216WMR968SP,2013-06-06 17:28:00,
2013-06-06 13:33:00,79.9,71.6,29.88,NNE,23,0.0,0.0,74,0.04,,,0.04,WUHU216WMR968SP,2013-06-06 17:33:00,
2013-06-06 13:38:00,79.7,71.6,29.88,NNE,23,0.0,0.0,75,0.04,,,0.04,WUHU216WMR968SP,2013-06-06 17:38:00,
2013-06-06 13:43:00,79.5,71.6,29.88,NNE,23,0.0,0.0,76,0.04,,,0.04,WUHU216WMR968SP,2013-06-06 17:43:00,
2013-06-06 13:48:00,79.7,71.6,29.88,NNE,23,0.0,0.0,75,0.04,,,0.04,WUHU216WMR968SP,2013-06-06 17:48:00,
2013-06-06 13:53:00,79.7,71.6,29.85,NNE,23,0.0,0.0,76,0.00,,,0.04,WUHU216WMR968SP,2013-06-06 17:53:00,
2013-06-06 13:59:00,81.1,71.6,29.85,NNE,23,0.0,0.0,74,0.00,,,0.04,WUHU216WMR968SP,2013-06-06 17:59:00,
2013-06-06 14:04:00,82.0,73.4,29.85,NW,306,0.0,0.0,73,0.00,,,0.04,WUHU216WMR968SP,2013-06-06 18:04:00,
2013-06-06 14:09:00,81.7,71.6,29.85,NE,38,0.0,0.0,70,0.00,,,0.04,WUHU216WMR968SP,2013-06-06 18:09:00,
2013-06-06 14:14:00,81.3,69.8,29.85,West,263,0.0,0.0,70,0.00,,,0.04,WUHU216WMR968SP,2013-06-06 18:14:00,
2013-06-06 14:19:00,81.0,71.6,29.85,SSE,158,0.0,0.0,72,0.00,,,0.04,WUHU216WMR968SP,2013-06-06 18:19:00,
2013-06-06 14:24:00,81.3,69.8,29.85,East,100,0.0,0.0,70,0.00,,,0.04,WUHU216WMR968SP,2013-06-06 18:24:00,
2013-06-06 14:29:00,81.7,71.6,29.85,East,81,0.0,0.0,69,0.00,,,0.04,WUHU216WMR968SP,2013-06-06 18:29:00,
2013-06-06 14:34:00,82.4,71.6,29.85,NE,56,0.0,0.0,69,0.00,,,0.04,WUHU216WMR968SP,2013-06-06 18:34:00,
2013-06-06 14:39:00,83.1,71.6,29.85,ENE,57,0.0,0.0,70,0.00,,,0.04,WUHU216WMR968SP,2013-06-06 18:39:00,
2013-06-06 14:44:00,83.3,71.6,29.85,WSW,240,0.0,0.0,67,0.00,,,0.04,WUHU216WMR968SP,2013-06-06 18:44:00,
2013-06-06 14:49:00,82.6,69.8,29.85,East,101,0.0,0.0,67,0.00,,,0.04,WUHU216WMR968SP,2013-06-06 18:49:00,
2013-06-06 14:54:00,82.9,71.6,29.85,East,101,0.0,0.0,69,0.00,,,0.04,WUHU216WMR968SP,2013-06-06 18:54:00,
2013-06-06 14:59:00,83.1,71.6,29.85,East,101,0.0,0.0,68,0.00,,,0.04,WUHU216WMR968SP,2013-06-06 18:59:00,
2013-06-06 15:04:00,82.0,71.6,29.85,South,171,0.0,0.0,68,0.00,,,0.04,WUHU216WMR968SP,2013-06-06 19:04:00,
2013-06-06 15:09:00,82.2,71.6,29.85,South,178,0.0,0.0,68,0.00,,,0.04,WUHU216WMR968SP,2013-06-06 19:09:00,
2013-06-06 15:14:00,82.2,71.6,29.85,SSW,194,0.0,0.0,70,0.00,,,0.04,WUHU216WMR968SP,2013-06-06 19:14:00,
2013-06-06 15:19:00,81.7,71.6,29.85,SSW,192,0.0,0.0,71,0.00,,,0.04,WUHU216WMR968SP,2013-06-06 19:19:00,
2013-06-06 15:24:00,81.3,69.8,29.85,SSW,192,0.0,0.0,69,0.00,,,0.04,WUHU216WMR968SP,2013-06-06 19:24:00,
2013-06-06 15:29:00,82.0,71.6,29.85,South,173,0.0,0.0,69,0.00,,,0.04,WUHU216WMR968SP,2013-06-06 19:29:00,
2013-06-06 15:34:00,82.2,69.8,29.85,SE,135,0.0,0.0,67,0.00,,,0.04,WUHU216WMR968SP,2013-06-06 19:34:00,
2013-06-06 15:39:00,82.6,71.6,29.82,South,173,0.0,0.0,68,0.00,,,0.04,WUHU216WMR968SP,2013-06-06 19:39:00,
2013-06-06 15:44:00,82.9,69.8,29.82,South,189,0.0,0.0,66,0.00,,,0.04,WUHU216WMR968SP,2013-06-06 19:44:00,
2013-06-06 15:49:00,83.1,69.8,29.82,East,79,0.0,0.0,67,0.00,,,0.04,WUHU216WMR968SP,2013-06-06 19:49:00,
2013-06-06 15:54:00,83.1,69.8,29.82,East,89,0.0,0.0,66,0.00,,,0.04,WUHU216WMR968SP,2013-06-06 19:54:00,
2013-06-06 15:59:00,82.9,69.8,29.82,SSW,200,0.0,0.0,66,0.00,,,0.04,WUHU216WMR968SP,2013-06-06 19:59:00,
2013-06-06 16:04:00,82.8,69.8,29.82,SW,216,0.0,0.0,65,0.00,,,0.04,WUHU216WMR968SP,2013-06-06 20:04:00,
2013-06-06 16:09:00,82.8,69.8,29.82,SE,140,0.0,0.0,66,0.00,,,0.04,WUHU216WMR968SP,2013-06-06 20:09:00,
2013-06-06 16:14:00,82.6,69.8,29.82,North,353,0.0,0.0,67,0.00,,,0.04,WUHU216WMR968SP,2013-06-06 20:14:00,
2013-06-06 16:19:00,82.6,69.8,29.82,SSW,201,0.0,0.0,66,0.00,,,0.04,WUHU216WMR968SP,2013-06-06 20:19:00,
2013-06-06 16:24:00,82.6,69.8,29.82,SW,222,0.0,0.0,66,0.00,,,0.04,WUHU216WMR968SP,2013-06-06 20:24:00,
2013-06-06 16:29:00,82.4,69.8,29.82,NNW,327,0.0,0.0,67,0.00,,,0.04,WUHU216WMR968SP,2013-06-06 20:29:00,
2013-06-06 16:34:00,82.6,69.8,29.82,SSE,150,0.0,0.0,67,0.00,,,0.04,WUHU216WMR968SP,2013-06-06 20:34:00,
2013-06-06 16:39:00,82.4,69.8,29.79,ESE,122,0.0,0.0,66,0.00,,,0.04,WUHU216WMR968SP,2013-06-06 20:39:00,
2013-06-06 16:44:00,82.2,71.6,29.79,SW,217,0.0,0.0,68,0.00,,,0.04,WUHU216WMR968SP,2013-06-06 20:44:00,
2013-06-06 16:49:00,82.2,69.8,29.79,WSW,239,0.0,0.0,67,0.00,,,0.04,WUHU216WMR968SP,2013-06-06 20:49:00,
2013-06-06 16:54:00,82.2,69.8,29.79,SSW,208,0.0,0.0,67,0.00,,,0.04,WUHU216WMR968SP,2013-06-06 20:54:00,
2013-06-06 16:59:00,81.9,69.8,29.79,NE,46,0.0,0.0,67,0.00,,,0.04,WUHU216WMR968SP,2013-06-06 20:59:00,
2013-06-06 17:04:00,81.3,68.0,29.79,North,357,0.0,0.0,67,0.00,,,0.04,WUHU216WMR968SP,2013-06-06 21:04:00,
2013-06-06 17:09:00,81.1,69.8,29.79,ENE,61,0.0,0.0,68,0.00,,,0.04,WUHU216WMR968SP,2013-06-06 21:09:00,
2013-06-06 17:14:00,81.3,69.8,29.79,South,175,0.0,0.0,68,0.00,,,0.04,WUHU216WMR968SP,2013-06-06 21:14:00,
2013-06-06 17:19:00,81.3,69.8,29.79,SW,231,0.0,0.0,68,0.00,,,0.04,WUHU216WMR968SP,2013-06-06 21:19:00,
2013-06-06 17:24:00,81.3,69.8,29.79,WNW,294,0.0,0.0,68,0.00,,,0.04,WUHU216WMR968SP,2013-06-06 21:24:00,
2013-06-06 17:29:00,81.0,69.8,29.79,WNW,292,0.0,0.0,70,0.00,,,0.04,WUHU216WMR968SP,2013-06-06 21:29:00,
2013-06-06 17:34:00,81.0,69.8,29.79,NNW,331,0.0,0.0,69,0.00,,,0.04,WUHU216WMR968SP,2013-06-06 21:34:00,
2013-06-06 17:39:00,80.6,69.8,29.79,NNE,30,0.0,0.0,70,0.00,,,0.04,WUHU216WMR968SP,2013-06-06 21:39:00,
2013-06-06 17:44:00,80.4,69.8,29.79,SSE,155,0.0,0.0,70,0.00,,,0.04,WUHU216WMR968SP,2013-06-06 21:44:00,
2013-06-06 17:49:00,80.4,69.8,29.79,ESE,119,0.0,0.0,71,0.00,,,0.04,WUHU216WMR968SP,2013-06-06 21:49:00,
2013-06-06 17:54:00,79.9,71.6,29.79,ESE,119,0.0,0.0,73,0.00,,,0.04,WUHU216WMR968SP,2013-06-06 21:54:00,
2013-06-06 17:59:00,79.5,69.8,29.79,ESE,119,0.0,0.0,73,0.00,,,0.04,WUHU216WMR968SP,2013-06-06 21:59:00,
2013-06-06 18:04:00,79.3,69.8,29.79,ESE,119,0.0,0.0,74,0.00,,,0.04,WUHU216WMR968SP,2013-06-06 22:04:00,
2013-06-06 18:09:00,78.8,71.6,29.79,ESE,119,0.0,0.0,77,0.00,,,0.04,WUHU216WMR968SP,2013-06-06 22:09:00,
2013-06-06 18:14:00,78.1,71.6,29.79,NNW,338,0.0,0.0,76,0.00,,,0.04,WUHU216WMR968SP,2013-06-06 22:14:00,
2013-06-06 18:19:00,77.0,68.0,29.79,West,271,0.0,0.0,74,0.00,,,0.04,WUHU216WMR968SP,2013-06-06 22:19:00,
2013-06-06 18:24:00,75.6,66.2,29.82,NE,44,0.0,0.0,74,0.00,,,0.04,WUHU216WMR968SP,2013-06-06 22:24:00,
2013-06-06 18:29:00,75.0,66.2,29.82,NNE,15,0.0,0.0,75,0.00,,,0.04,WUHU216WMR968SP,2013-06-06 22:29:00,
2013-06-06 18:34:00,74.1,66.2,29.82,NNE,15,0.0,0.0,77,0.00,,,0.04,WUHU216WMR968SP,2013-06-06 22:34:00,
2013-06-06 18:39:00,73.4,66.2,29.79,SSE,154,0.0,0.0,78,0.00,,,0.04,WUHU216WMR968SP,2013-06-06 22:39:00,
2013-06-06 18:44:00,73.4,66.2,29.79,SSE,154,0.0,0.0,80,0.00,,,0.04,WUHU216WMR968SP,2013-06-06 22:44:00,
2013-06-06 18:49:00,73.0,68.0,29.79,SSW,197,0.0,0.0,81,0.00,,,0.04,WUHU216WMR968SP,2013-06-06 22:49:00,
2013-06-06 18:54:00,73.0,68.0,29.79,SSW,197,0.0,0.0,82,0.00,,,0.04,WUHU216WMR968SP,2013-06-06 22:54:00,
2013-06-06 18:59:00,73.0,68.0,29.79,SSW,197,0.0,0.0,84,0.00,,,0.04,WUHU216WMR968SP,2013-06-06 22:59:00,
2013-06-06 19:04:00,72.9,68.0,29.79,SSW,197,0.0,0.0,85,0.00,,,0.04,WUHU216WMR968SP,2013-06-06 23:04:00,
2013-06-06 19:09:00,72.9,68.0,29.79,SSW,197,0.0,0.0,85,0.00,,,0.04,WUHU216WMR968SP,2013-06-06 23:09:00,
2013-06-06 19:14:00,72.7,68.0,29.79,SSW,197,0.0,0.0,86,0.00,,,0.04,WUHU216WMR968SP,2013-06-06 23:14:00,
2013-06-06 19:19:00,72.7,69.8,29.79,SSW,197,0.0,0.0,87,0.00,,,0.04,WUHU216WMR968SP,2013-06-06 23:19:00,
2013-06-06 19:24:00,72.5,69.8,29.79,SSW,197,0.0,0.0,87,0.00,,,0.04,WUHU216WMR968SP,2013-06-06 23:24:00,
2013-06-06 19:29:00,72.5,69.8,29.79,SE,137,0.0,0.0,88,0.00,,,0.04,WUHU216WMR968SP,2013-06-06 23:29:00,
2013-06-06 19:34:00,72.3,68.0,29.79,SE,137,0.0,0.0,88,0.00,,,0.04,WUHU216WMR968SP,2013-06-06 23:34:00,
2013-06-06 19:39:00,72.3,68.0,29.79,SE,137,0.0,0.0,89,0.00,,,0.04,WUHU216WMR968SP,2013-06-06 23:39:00,
2013-06-06 19:44:00,72.1,68.0,29.79,SE,137,0.0,0.0,89,0.00,,,0.04,WUHU216WMR968SP,2013-06-06 23:44:00,
2013-06-06 19:49:00,72.1,68.0,29.79,SE,137,0.0,0.0,89,0.00,,,0.04,WUHU216WMR968SP,2013-06-06 23:49:00,
2013-06-06 19:54:00,72.1,68.0,29.79,SE,137,0.0,0.0,89,0.00,,,0.04,WUHU216WMR968SP,2013-06-06 23:54:00,
2013-06-06 19:59:00,72.0,68.0,29.79,SE,137,0.0,0.0,90,0.00,,,0.04,WUHU216WMR968SP,2013-06-06 23:59:00,
2013-06-06 20:04:00,72.0,68.0,29.79,SE,136,0.0,0.0,90,0.00,,,0.04,WUHU216WMR968SP,2013-06-07 00:04:00,
2013-06-06 20:09:00,71.8,68.0,29.79,SE,137,0.0,0.0,90,0.00,,,0.04,WUHU216WMR968SP,2013-06-07 00:09:00,
2013-06-06 20:14:00,71.8,68.0,29.79,SE,136,0.0,0.0,90,0.00,,,0.04,WUHU216WMR968SP,2013-06-07 00:14:00,
2013-06-06 20:19:00,71.8,68.0,29.79,SE,137,0.0,0.0,90,0.00,,,0.04,WUHU216WMR968SP,2013-06-07 00:19:00,
2013-06-06 20:24:00,71.6,68.0,29.79,SE,136,0.0,0.0,90,0.00,,,0.04,WUHU216WMR968SP,2013-06-07 00:24:00,
2013-06-06 20:29:00,71.6,68.0,29.79,SE,137,0.0,0.0,91,0.00,,,0.04,WUHU216WMR968SP,2013-06-07 00:29:00,
2013-06-06 20:34:00,71.4,69.8,29.79,SE,136,0.0,0.0,92,0.00,,,0.04,WUHU216WMR968SP,2013-06-07 00:34:00,
2013-06-06 20:39:00,71.4,69.8,29.82,SE,137,0.0,0.0,92,0.00,,,0.04,WUHU216WMR968SP,2013-06-07 00:39:00,
2013-06-06 20:44:00,71.4,69.8,29.82,SE,133,0.0,0.0,93,0.00,,,0.04,WUHU216WMR968SP,2013-06-07 00:44:00,
2013-06-06 20:49:00,71.2,69.8,29.82,SE,133,0.0,0.0,94,0.00,,,0.04,WUHU216WMR968SP,2013-06-07 00:49:00,
2013-06-06 20:54:00,71.1,69.8,29.82,SE,133,0.0,0.0,94,0.00,,,0.04,WUHU216WMR968SP,2013-06-07 00:54:00,
2013-06-06 20:59:00,70.9,69.8,29.82,SE,133,0.0,0.0,95,0.22,,,0.26,WUHU216WMR968SP,2013-06-07 00:59:00,
2013-06-06 21:04:00,70.3,68.0,29.82,ENE,76,0.0,0.0,95,0.39,,,0.43,WUHU216WMR968SP,2013-06-07 01:04:00,
2013-06-06 21:09:00,69.8,68.0,29.82,South,172,0.0,0.0,96,0.43,,,0.47,WUHU216WMR968SP,2013-06-07 01:09:00,
2013-06-06 21:14:00,69.6,68.0,29.82,ESE,113,0.0,0.0,96,0.43,,,0.47,WUHU216WMR968SP,2013-06-07 01:14:00,
2013-06-06 21:19:00,69.6,68.0,29.82,East,83,0.0,0.0,96,0.43,,,0.47,WUHU216WMR968SP,2013-06-07 01:19:00,
2013-06-06 21:24:00,69.4,68.0,29.79,East,91,0.0,0.0,96,0.43,,,0.47,WUHU216WMR968SP,2013-06-07 01:24:00,
2013-06-06 21:29:00,69.3,69.8,29.79,East,91,0.0,0.0,97,0.43,,,0.47,WUHU216WMR968SP,2013-06-07 01:29:00,
2013-06-06 21:34:00,69.3,69.8,29.79,East,91,0.0,0.0,97,0.43,,,0.47,WUHU216WMR968SP,2013-06-07 01:34:00,
2013-06-06 21:39:00,69.1,69.8,29.79,East,91,0.0,0.0,97,0.43,,,0.47,WUHU216WMR968SP,2013-06-07 01:39:00,
2013-06-06 21:44:00,69.1,69.8,29.79,East,91,0.0,0.0,98,0.43,,,0.47,WUHU216WMR968SP,2013-06-07 01:44:00,
2013-06-06 21:49:00,69.1,69.8,29.79,East,91,0.0,0.0,98,0.43,,,0.47,WUHU216WMR968SP,2013-06-07 01:49:00,
2013-06-06 21:54:00,69.1,69.8,29.82,East,91,0.0,0.0,98,0.43,,,0.47,WUHU216WMR968SP,2013-06-07 01:54:00,
2013-06-06 21:59:00,69.1,69.8,29.82,East,91,0.0,0.0,98,0.22,,,0.47,WUHU216WMR968SP,2013-06-07 01:59:00,
2013-06-06 22:04:00,69.1,69.8,29.82,East,91,0.0,0.0,98,0.04,,,0.47,WUHU216WMR968SP,2013-06-07 02:04:00,
2013-06-06 22:09:00,69.1,69.8,29.82,East,91,0.0,0.0,98,0.00,,,0.47,WUHU216WMR968SP,2013-06-07 02:09:00,
2013-06-06 22:14:00,69.1,69.8,29.82,East,91,0.0,0.0,98,0.00,,,0.47,WUHU216WMR968SP,2013-06-07 02:14:00,
2013-06-06 22:19:00,69.1,69.8,29.82,East,91,0.0,0.0,98,0.00,,,0.47,WUHU216WMR968SP,2013-06-07 02:19:00,
2013-06-06 22:24:00,69.1,69.8,29.82,East,92,0.0,0.0,98,0.00,,,0.47,WUHU216WMR968SP,2013-06-07 02:24:00,
2013-06-06 22:29:00,69.1,69.8,29.82,East,91,0.0,0.0,98,0.00,,,0.47,WUHU216WMR968SP,2013-06-07 02:29:00,
2013-06-06 22:34:00,69.1,69.8,29.82,East,92,0.0,0.0,98,0.00,,,0.47,WUHU216WMR968SP,2013-06-07 02:34:00,
2013-06-06 22:39:00,69.1,69.8,29.82,East,91,0.0,0.0,98,0.00,,,0.47,WUHU216WMR968SP,2013-06-07 02:39:00,
2013-06-06 22:44:00,69.1,69.8,29.82,East,91,0.0,0.0,98,0.00,,,0.47,WUHU216WMR968SP,2013-06-07 02:44:00,
2013-06-06 22:49:00,68.9,69.8,29.82,East,91,0.0,0.0,98,0.00,,,0.47,WUHU216WMR968SP,2013-06-07 02:49:00,
2013-06-06 22:54:00,68.9,69.8,29.82,East,92,0.0,0.0,98,0.00,,,0.47,WUHU216WMR968SP,2013-06-07 02:54:00,
2013-06-06 22:59:00,68.9,69.8,29.82,East,92,0.0,0.0,98,0.00,,,0.47,WUHU216WMR968SP,2013-06-07 02:59:00,
2013-06-06 23:04:00,68.9,69.8,29.82,East,92,0.0,0.0,98,0.00,,,0.47,WUHU216WMR968SP,2013-06-07 03:04:00,
2013-06-06 23:09:00,68.9,69.8,29.82,East,92,0.0,0.0,98,0.00,,,0.47,WUHU216WMR968SP,2013-06-07 03:09:00,
2013-06-06 23:14:00,68.9,69.8,29.82,East,93,0.0,0.0,98,0.00,,,0.47,WUHU216WMR968SP,2013-06-07 03:14:00,
2013-06-06 23:19:00,68.9,69.8,29.82,East,92,0.0,0.0,98,0.00,,,0.47,WUHU216WMR968SP,2013-06-07 03:19:00,
2013-06-06 23:24:00,68.9,69.8,29.82,East,96,0.0,0.0,98,0.00,,,0.47,WUHU216WMR968SP,2013-06-07 03:24:00,
2013-06-06 23:29:00,68.9,69.8,29.82,East,96,0.0,0.0,98,0.00,,,0.47,WUHU216WMR968SP,2013-06-07 03:29:00,
2013-06-06 23:34:00,68.7,68.0,29.82,East,96,0.0,0.0,98,0.00,,,0.47,WUHU216WMR968SP,2013-06-07 03:34:00,
2013-06-06 23:39:00,68.7,68.0,29.82,East,96,0.0,0.0,98,0.00,,,0.47,WUHU216WMR968SP,2013-06-07 03:39:00,
2013-06-06 23:44:00,68.5,68.0,29.82,East,96,0.0,0.0,98,0.00,,,0.47,WUHU216WMR968SP,2013-06-07 03:44:00,
2013-06-06 23:49:00,68.5,68.0,29.82,East,96,0.0,0.0,98,0.00,,,0.47,WUHU216WMR968SP,2013-06-07 03:49:00,
2013-06-06 23:54:00,68.5,68.0,29.82,East,96,0.0,0.0,98,0.00,,,0.47,WUHU216WMR968SP,2013-06-07 03:54:00,
2013-06-06 23:59:00,68.5,68.0,29.82,East,96,0.0,0.0,98,0.00,,,0.47,WUHU216WMR968SP,2013-06-07 03:59:00,